Location: Wellington
(41.3000°S, 174.7830°E)
Time: 18:23:37
(UTC+13:00)

Cosmos 1151 Rocket - Pass Details

Date: 24 January 2019
Orbit: 593 x 616 km, 82.5° (Epoch: 23 October)

Event Time Altitude Azimuth Distance (km) Brightness Sun altitude
Rises 21:48:55 0° 355° (N) 2,827 6.1 -10.3°
Reaches altitude 10° 21:51:06 10° 355° (N) 1,936 5.3 -10.7°
Maximum altitude 21:55:23 85° 83° (E) 614 3.0 -11.3°
Drops below altitude 10° 21:59:46 10° 171° (S) 1,976 6.1 -11.9°
Sets 22:02:00 0° 171° (S) 2,891 6.9 -12.3°
